{"data":{"norad_id":66571,"intl_designator":"2025-268Q","name":"STARLINK-35836","alt_names":[],"object_type":"PAYLOAD","status":"ACTIVE","operator":null,"country":"US","launch_date":"2025-11-21","launch_site_code":"AFETR","launch_vehicle":null,"mission":null,"orbit_class":"UNKNOWN","rcs_meters":null,"size_class":null,"mass_kg":null,"dimensions":null,"purposes":["comms"],"wikipedia_slug":null,"has_3d_model":false,"image_url":null,"decayed_at":null,"tle_current":{"epoch":"2026-09-20T11:10:12.478080Z","epoch_age_seconds":92343,"freshness":"FRESH","line1":"1 66571U 25268Q   26263.46542220  .00008244  00000+0  30867-3 0  9996","line2":"2 66571  42.9986 327.4633 0000615 259.8312 100.2471 15.27590305 47749","mean_motion":15.27590305,"eccentricity":6.15e-5,"inclination_deg":42.9986,"raan_deg":327.4633,"arg_perigee_deg":259.8312,"mean_anomaly_deg":100.2471,"bstar":0.00030867,"rev_number":4774,"period_min":94.266112797829,"perigee_km":482.59627828869,"apogee_km":483.44020038313,"semimajor_km":6861.1552393359,"source":"CELESTRAK","updated_at":"2026-09-21T09:00:35.972410Z"}}}